owner,sensor,date,latitude,longitude,air_pressure(mBar),qcFlag 
COMPS,ioos:station:USF.COMPS:C10:1,2017-11-09T15:25:00Z,27.1690,-82.9260,1015.46,1111122 
COMPS,ioos:station:USF.COMPS:C10:1,2017-11-09T16:05:00Z,27.1690,-82.9260,1015.28,1111122 
COMPS,ioos:station:USF.COMPS:C10:1,2017-11-09T16:35:00Z,27.1690,-82.9260,1014.89,1111122 
COMPS,ioos:station:USF.COMPS:C10:1,2017-11-09T17:05:00Z,27.1690,-82.9260,1014.56,1111122 
COMPS,ioos:station:USF.COMPS:C10:1,2017-11-09T17:35:00Z,27.1690,-82.9260,1014.16,1111122 
COMPS,ioos:station:USF.COMPS:C10:1,2017-11-09T18:05:00Z,27.1690,-82.9260,1013.75,1111122 
COMPS,ioos:station:USF.COMPS:C10:1,2017-11-09T18:35:00Z,27.1690,-82.9260,1013.51,1111122 
COMPS,ioos:station:USF.COMPS:C10:1,2017-11-09T19:05:00Z,27.1690,-82.9260,1013.29,1111122 
COMPS,ioos:station:USF.COMPS:C10:1,2017-11-09T19:35:00Z,27.1690,-82.9260,1013.28,1111122 
COMPS,ioos:station:USF.COMPS:C10:1,2017-11-09T20:05:00Z,27.1690,-82.9260,1013.26,1111122 
COMPS,ioos:station:USF.COMPS:C10:1,2017-11-09T20:35:00Z,27.1690,-82.9260,1013.22,1111122 
COMPS,ioos:station:USF.COMPS:C10:1,2017-11-09T21:05:00Z,27.1690,-82.9260,1013.16,1111122 
COMPS,ioos:station:USF.COMPS:C10:1,2017-11-09T21:35:00Z,27.1690,-82.9260,1013.06,1111122 
COMPS,ioos:station:USF.COMPS:C10:1,2017-11-09T22:05:00Z,27.1690,-82.9260,1013.07,1111122 
COMPS,ioos:station:USF.COMPS:C10:1,2017-11-09T22:35:00Z,27.1690,-82.9260,1013.23,1111122 
COMPS,ioos:station:USF.COMPS:C10:1,2017-11-09T23:05:00Z,27.1690,-82.9260,1013.52,1111122 
COMPS,ioos:station:USF.COMPS:C10:1,2017-11-09T23:35:00Z,27.1690,-82.9260,1013.74,1111122 
COMPS,ioos:station:USF.COMPS:C10:1,2017-11-10T00:05:00Z,27.1690,-82.9260,1013.92,1111122 
COMPS,ioos:station:USF.COMPS:C10:1,2017-11-10T00:35:00Z,27.1690,-82.9260,1014.06,1111122 
COMPS,ioos:station:USF.COMPS:C10:1,2017-11-10T01:05:00Z,27.1690,-82.9260,1014.24,1111122 
COMPS,ioos:station:USF.COMPS:C10:1,2017-11-10T01:35:00Z,27.1690,-82.9260,1014.45,1111122 
COMPS,ioos:station:USF.COMPS:C10:1,2017-11-10T02:05:00Z,27.1690,-82.9260,1014.54,1111122 
COMPS,ioos:station:USF.COMPS:C10:1,2017-11-10T02:35:00Z,27.1690,-82.9260,1014.73,1111122 
COMPS,ioos:station:USF.COMPS:C10:1,2017-11-10T03:05:00Z,27.1690,-82.9260,1014.81,1111122 
COMPS,ioos:station:USF.COMPS:C10:1,2017-11-10T03:35:00Z,27.1690,-82.9260,1014.82,1111122 
COMPS,ioos:station:USF.COMPS:C10:1,2017-11-10T04:05:00Z,27.1690,-82.9260,1014.78,1111122 
COMPS,ioos:station:USF.COMPS:C10:1,2017-11-10T04:35:00Z,27.1690,-82.9260,1014.55,1111122 
COMPS,ioos:station:USF.COMPS:C10:1,2017-11-10T05:05:00Z,27.1690,-82.9260,1014.45,1111122 
COMPS,ioos:station:USF.COMPS:C10:1,2017-11-10T05:35:00Z,27.1690,-82.9260,1014.26,1111122 
COMPS,ioos:station:USF.COMPS:C10:1,2017-11-10T06:05:00Z,27.1690,-82.9260,1014.26,1111122 
COMPS,ioos:station:USF.COMPS:C10:1,2017-11-10T06:35:00Z,27.1690,-82.9260,1014.17,1111122 
COMPS,ioos:station:USF.COMPS:C10:1,2017-11-10T07:05:00Z,27.1690,-82.9260,1014.01,1111122 
COMPS,ioos:station:USF.COMPS:C10:1,2017-11-10T07:35:00Z,27.1690,-82.9260,1013.98,1111122 
COMPS,ioos:station:USF.COMPS:C10:1,2017-11-10T08:05:00Z,27.1690,-82.9260,1013.92,1111122 
COMPS,ioos:station:USF.COMPS:C10:1,2017-11-10T08:35:00Z,27.1690,-82.9260,1014.0,1111122 
COMPS,ioos:station:USF.COMPS:C10:1,2017-11-10T09:05:00Z,27.1690,-82.9260,1014.0,1111122 
COMPS,ioos:station:USF.COMPS:C10:1,2017-11-10T09:35:00Z,27.1690,-82.9260,1014.26,1111122 
COMPS,ioos:station:USF.COMPS:C10:1,2017-11-10T10:05:00Z,27.1690,-82.9260,1014.44,1111122 
COMPS,ioos:station:USF.COMPS:C10:1,2017-11-10T10:35:00Z,27.1690,-82.9260,1014.48,1111122 
COMPS,ioos:station:USF.COMPS:C10:1,2017-11-10T11:05:00Z,27.1690,-82.9260,1014.79,1111122 
COMPS,ioos:station:USF.COMPS:C10:1,2017-11-10T11:35:00Z,27.1690,-82.9260,1015.0,1111122 
COMPS,ioos:station:USF.COMPS:C10:1,2017-11-10T12:05:00Z,27.1690,-82.9260,1015.31,1111122 
COMPS,ioos:station:USF.COMPS:C10:1,2017-11-10T12:35:00Z,27.1690,-82.9260,1015.49,1111122 
COMPS,ioos:station:USF.COMPS:C10:1,2017-11-10T13:05:00Z,27.1690,-82.9260,1015.83,1111122 
COMPS,ioos:station:USF.COMPS:C10:1,2017-11-10T13:35:00Z,27.1690,-82.9260,1016.31,1111122 
COMPS,ioos:station:USF.COMPS:C10:1,2017-11-10T14:05:00Z,27.1690,-82.9260,1016.4,1111122 
COMPS,ioos:station:USF.COMPS:C10:1,2017-11-10T14:35:00Z,27.1690,-82.9260,1016.52,1111122 
COMPS,ioos:station:USF.COMPS:C10:1,2017-11-10T15:05:00Z,27.1690,-82.9260,1016.71,1111122 
COMPS,ioos:station:USF.COMPS:C10:1,2017-11-10T15:35:00Z,27.1690,-82.9260,1016.72,1111122 
COMPS,ioos:station:USF.COMPS:C10:1,2017-11-10T16:05:00Z,27.1690,-82.9260,1016.65,1111122 
COMPS,ioos:station:USF.COMPS:C10:1,2017-11-10T16:35:00Z,27.1690,-82.9260,1016.55,1111122 
COMPS,ioos:station:USF.COMPS:C10:1,2017-11-10T17:05:00Z,27.1690,-82.9260,1016.32,1111122 
COMPS,ioos:station:USF.COMPS:C10:1,2017-11-10T17:35:00Z,27.1690,-82.9260,1015.94,1111122 
COMPS,ioos:station:USF.COMPS:C10:1,2017-11-10T18:05:00Z,27.1690,-82.9260,1015.8,1111122 
COMPS,ioos:station:USF.COMPS:C10:1,2017-11-10T18:35:00Z,27.1690,-82.9260,1015.44,1111122 
COMPS,ioos:station:USF.COMPS:C10:1,2017-11-10T19:05:00Z,27.1690,-82.9260,1015.17,1111122 
COMPS,ioos:station:USF.COMPS:C10:1,2017-11-10T19:35:00Z,27.1690,-82.9260,1014.99,1111122 
COMPS,ioos:station:USF.COMPS:C10:1,2017-11-10T20:05:00Z,27.1690,-82.9260,1014.95,1111122 
COMPS,ioos:station:USF.COMPS:C10:1,2017-11-10T20:35:00Z,27.1690,-82.9260,1015.07,1111122 
COMPS,ioos:station:USF.COMPS:C10:1,2017-11-10T21:05:00Z,27.1690,-82.9260,1015.36,1111122 
COMPS,ioos:station:USF.COMPS:C10:1,2017-11-10T21:35:00Z,27.1690,-82.9260,1015.36,1111122 
COMPS,ioos:station:USF.COMPS:C10:1,2017-11-10T22:05:00Z,27.1690,-82.9260,1015.41,1111122 
COMPS,ioos:station:USF.COMPS:C10:1,2017-11-10T22:35:00Z,27.1690,-82.9260,1015.67,1111122 
COMPS,ioos:station:USF.COMPS:C10:1,2017-11-10T23:05:00Z,27.1690,-82.9260,1015.86,1111122 
COMPS,ioos:station:USF.COMPS:C10:1,2017-11-10T23:35:00Z,27.1690,-82.9260,1016.23,1111122 
COMPS,ioos:station:USF.COMPS:C10:1,2017-11-11T00:05:00Z,27.1690,-82.9260,1016.48,1111122 
COMPS,ioos:station:USF.COMPS:C10:1,2017-11-11T00:35:00Z,27.1690,-82.9260,1016.88,1111122 
COMPS,ioos:station:USF.COMPS:C10:1,2017-11-11T01:05:00Z,27.1690,-82.9260,1017.2,1111122 
COMPS,ioos:station:USF.COMPS:C10:1,2017-11-11T01:35:00Z,27.1690,-82.9260,1017.54,1111122 
COMPS,ioos:station:USF.COMPS:C10:1,2017-11-11T02:05:00Z,27.1690,-82.9260,1017.72,1111122 
COMPS,ioos:station:USF.COMPS:C10:1,2017-11-11T02:35:00Z,27.1690,-82.9260,1017.86,1111122 
COMPS,ioos:station:USF.COMPS:C10:1,2017-11-11T03:05:00Z,27.1690,-82.9260,1018.04,1111122 
COMPS,ioos:station:USF.COMPS:C10:1,2017-11-11T03:35:00Z,27.1690,-82.9260,1018.17,1111122 
COMPS,ioos:station:USF.COMPS:C10:1,2017-11-11T04:05:00Z,27.1690,-82.9260,1018.13,1111122 
COMPS,ioos:station:USF.COMPS:C10:1,2017-11-11T04:35:00Z,27.1690,-82.9260,1017.93,1111122 
COMPS,ioos:station:USF.COMPS:C10:1,2017-11-11T05:05:00Z,27.1690,-82.9260,1017.65,1111122 
COMPS,ioos:station:USF.COMPS:C10:1,2017-11-11T05:35:00Z,27.1690,-82.9260,1017.57,1111122 
COMPS,ioos:station:USF.COMPS:C10:1,2017-11-11T06:05:00Z,27.1690,-82.9260,1017.49,1111122 
COMPS,ioos:station:USF.COMPS:C10:1,2017-11-11T06:35:00Z,27.1690,-82.9260,1017.34,1111122 
COMPS,ioos:station:USF.COMPS:C10:1,2017-11-11T07:05:00Z,27.1690,-82.9260,1017.24,1111122 
COMPS,ioos:station:USF.COMPS:C10:1,2017-11-11T07:35:00Z,27.1690,-82.9260,1017.11,1111122 
COMPS,ioos:station:USF.COMPS:C10:1,2017-11-11T08:05:00Z,27.1690,-82.9260,1016.87,1111122 
COMPS,ioos:station:USF.COMPS:C10:1,2017-11-11T08:35:00Z,27.1690,-82.9260,1016.87,1111122 
COMPS,ioos:station:USF.COMPS:C10:1,2017-11-11T09:05:00Z,27.1690,-82.9260,1016.87,1111122 
COMPS,ioos:station:USF.COMPS:C10:1,2017-11-11T09:35:00Z,27.1690,-82.9260,1016.89,1111122 
COMPS,ioos:station:USF.COMPS:C10:1,2017-11-11T10:05:00Z,27.1690,-82.9260,1017.12,1111122 
COMPS,ioos:station:USF.COMPS:C10:1,2017-11-11T10:35:00Z,27.1690,-82.9260,1017.32,1111122 
COMPS,ioos:station:USF.COMPS:C10:1,2017-11-11T11:05:00Z,27.1690,-82.9260,1017.39,1111122 
COMPS,ioos:station:USF.COMPS:C10:1,2017-11-11T11:35:00Z,27.1690,-82.9260,1017.55,1111122 
COMPS,ioos:station:USF.COMPS:C10:1,2017-11-11T12:05:00Z,27.1690,-82.9260,1017.79,1111122 
COMPS,ioos:station:USF.COMPS:C10:1,2017-11-11T12:35:00Z,27.1690,-82.9260,1018.08,1111122 
COMPS,ioos:station:USF.COMPS:C10:1,2017-11-11T13:05:00Z,27.1690,-82.9260,1018.31,1111122 
COMPS,ioos:station:USF.COMPS:C10:1,2017-11-11T13:35:00Z,27.1690,-82.9260,1018.56,1111122 
COMPS,ioos:station:USF.COMPS:C10:1,2017-11-11T14:05:00Z,27.1690,-82.9260,1018.87,1111122 
COMPS,ioos:station:USF.COMPS:C10:1,2017-11-11T14:35:00Z,27.1690,-82.9260,1018.97,1111122 
COMPS,ioos:station:USF.COMPS:C10:1,2017-11-11T15:05:00Z,27.1690,-82.9260,1019.01,1111122 
COMPS,ioos:station:USF.COMPS:C10:1,2017-11-11T15:35:00Z,27.1690,-82.9260,1019.15,1111122 
COMPS,ioos:station:USF.COMPS:C10:1,2017-11-11T16:05:00Z,27.1690,-82.9260,1019.04,1111122 
COMPS,ioos:station:USF.COMPS:C10:1,2017-11-11T16:35:00Z,27.1690,-82.9260,1018.78,1111122 
COMPS,ioos:station:USF.COMPS:C10:1,2017-11-11T17:05:00Z,27.1690,-82.9260,1018.37,1111122 
COMPS,ioos:station:USF.COMPS:C10:1,2017-11-11T17:35:00Z,27.1690,-82.9260,1017.85,1111122 
COMPS,ioos:station:USF.COMPS:C10:1,2017-11-11T18:05:00Z,27.1690,-82.9260,1017.26,1111122 
COMPS,ioos:station:USF.COMPS:C10:1,2017-11-11T18:35:00Z,27.1690,-82.9260,1016.87,1111122 
COMPS,ioos:station:USF.COMPS:C10:1,2017-11-11T19:05:00Z,27.1690,-82.9260,1016.58,1111122 
COMPS,ioos:station:USF.COMPS:C10:1,2017-11-11T19:35:00Z,27.1690,-82.9260,1016.35,1111122 
COMPS,ioos:station:USF.COMPS:C10:1,2017-11-11T20:05:00Z,27.1690,-82.9260,1016.06,1111122 
COMPS,ioos:station:USF.COMPS:C10:1,2017-11-11T20:35:00Z,27.1690,-82.9260,1016.04,1111122 
COMPS,ioos:station:USF.COMPS:C10:1,2017-11-11T21:05:00Z,27.1690,-82.9260,1016.03,1111122 
COMPS,ioos:station:USF.COMPS:C10:1,2017-11-11T21:35:00Z,27.1690,-82.9260,1016.08,1111122 
COMPS,ioos:station:USF.COMPS:C10:1,2017-11-11T22:05:00Z,27.1690,-82.9260,1016.34,1111122 
COMPS,ioos:station:USF.COMPS:C10:1,2017-11-11T22:35:00Z,27.1690,-82.9260,1016.31,1111122 
COMPS,ioos:station:USF.COMPS:C10:1,2017-11-11T23:05:00Z,27.1690,-82.9260,1016.5,1111122 
COMPS,ioos:station:USF.COMPS:C10:1,2017-11-11T23:35:00Z,27.1690,-82.9260,1017.02,1111122 
COMPS,ioos:station:USF.COMPS:C10:1,2017-11-12T00:05:00Z,27.1690,-82.9260,1017.36,1111122 
COMPS,ioos:station:USF.COMPS:C10:1,2017-11-12T00:35:00Z,27.1690,-82.9260,1017.66,1111122 
COMPS,ioos:station:USF.COMPS:C10:1,2017-11-12T01:05:00Z,27.1690,-82.9260,1017.85,1111122 
COMPS,ioos:station:USF.COMPS:C10:1,2017-11-12T01:35:00Z,27.1690,-82.9260,1018.15,1111122 
COMPS,ioos:station:USF.COMPS:C10:1,2017-11-12T02:05:00Z,27.1690,-82.9260,1018.22,1111122 
COMPS,ioos:station:USF.COMPS:C10:1,2017-11-12T02:35:00Z,27.1690,-82.9260,1018.48,1111122 
COMPS,ioos:station:USF.COMPS:C10:1,2017-11-12T03:05:00Z,27.1690,-82.9260,1018.36,1111122 
COMPS,ioos:station:USF.COMPS:C10:1,2017-11-12T03:35:00Z,27.1690,-82.9260,1018.3,1111122 
COMPS,ioos:station:USF.COMPS:C10:1,2017-11-12T04:05:00Z,27.1690,-82.9260,1018.21,1111122 
COMPS,ioos:station:USF.COMPS:C10:1,2017-11-12T04:35:00Z,27.1690,-82.9260,1018.01,1111122 
COMPS,ioos:station:USF.COMPS:C10:1,2017-11-12T05:05:00Z,27.1690,-82.9260,1017.8,1111122 
COMPS,ioos:station:USF.COMPS:C10:1,2017-11-12T05:35:00Z,27.1690,-82.9260,1017.74,1111122 
COMPS,ioos:station:USF.COMPS:C10:1,2017-11-12T06:05:00Z,27.1690,-82.9260,1017.76,1111122 
COMPS,ioos:station:USF.COMPS:C10:1,2017-11-12T06:35:00Z,27.1690,-82.9260,1017.73,1111122 
COMPS,ioos:station:USF.COMPS:C10:1,2017-11-12T07:05:00Z,27.1690,-82.9260,1017.55,1111122 
COMPS,ioos:station:USF.COMPS:C10:1,2017-11-12T07:35:00Z,27.1690,-82.9260,1017.45,1111122 
COMPS,ioos:station:USF.COMPS:C10:1,2017-11-12T08:05:00Z,27.1690,-82.9260,1017.21,1111122 
COMPS,ioos:station:USF.COMPS:C10:1,2017-11-12T08:35:00Z,27.1690,-82.9260,1017.17,1111122 
COMPS,ioos:station:USF.COMPS:C10:1,2017-11-12T09:05:00Z,27.1690,-82.9260,1017.2,1111122 
COMPS,ioos:station:USF.COMPS:C10:1,2017-11-12T09:35:00Z,27.1690,-82.9260,1017.22,1111122 
COMPS,ioos:station:USF.COMPS:C10:1,2017-11-12T10:05:00Z,27.1690,-82.9260,1017.42,1111122 
COMPS,ioos:station:USF.COMPS:C10:1,2017-11-12T10:35:00Z,27.1690,-82.9260,1017.65,1111122 
COMPS,ioos:station:USF.COMPS:C10:1,2017-11-12T11:05:00Z,27.1690,-82.9260,1017.79,1111122 
COMPS,ioos:station:USF.COMPS:C10:1,2017-11-12T11:35:00Z,27.1690,-82.9260,1018.08,1111122 
COMPS,ioos:station:USF.COMPS:C10:1,2017-11-12T12:05:00Z,27.1690,-82.9260,1018.37,1111122 
COMPS,ioos:station:USF.COMPS:C10:1,2017-11-12T12:35:00Z,27.1690,-82.9260,1018.62,1111122 
COMPS,ioos:station:USF.COMPS:C10:1,2017-11-12T13:05:00Z,27.1690,-82.9260,1018.78,1111122 
COMPS,ioos:station:USF.COMPS:C10:1,2017-11-12T13:35:00Z,27.1690,-82.9260,1019.07,1111122 
COMPS,ioos:station:USF.COMPS:C10:1,2017-11-12T14:05:00Z,27.1690,-82.9260,1019.07,1111122 
COMPS,ioos:station:USF.COMPS:C10:1,2017-11-12T14:35:00Z,27.1690,-82.9260,1019.22,1111122 
COMPS,ioos:station:USF.COMPS:C10:1,2017-11-12T15:05:00Z,27.1690,-82.9260,1019.37,1111122 
COMPS,ioos:station:USF.COMPS:C10:1,2017-11-12T15:35:00Z,27.1690,-82.9260,1019.22,1111122 
COMPS,ioos:station:USF.COMPS:C10:1,2017-11-12T16:05:00Z,27.1690,-82.9260,1019.08,1111122 
COMPS,ioos:station:USF.COMPS:C10:1,2017-11-12T16:35:00Z,27.1690,-82.9260,1018.68,1111122 
COMPS,ioos:station:USF.COMPS:C10:1,2017-11-12T17:05:00Z,27.1690,-82.9260,1018.16,1111122 
COMPS,ioos:station:USF.COMPS:C10:1,2017-11-12T17:35:00Z,27.1690,-82.9260,1017.7,1111122 
COMPS,ioos:station:USF.COMPS:C10:1,2017-11-12T18:05:00Z,27.1690,-82.9260,1017.22,1111122 
COMPS,ioos:station:USF.COMPS:C10:1,2017-11-12T18:35:00Z,27.1690,-82.9260,1016.9,1111122 
COMPS,ioos:station:USF.COMPS:C10:1,2017-11-12T19:05:00Z,27.1690,-82.9260,1016.75,1111122 
COMPS,ioos:station:USF.COMPS:C10:1,2017-11-12T19:35:00Z,27.1690,-82.9260,1016.64,1111122 
COMPS,ioos:station:USF.COMPS:C10:1,2017-11-12T20:05:00Z,27.1690,-82.9260,1016.5,1111122 
COMPS,ioos:station:USF.COMPS:C10:1,2017-11-12T20:35:00Z,27.1690,-82.9260,1016.69,1111122 
COMPS,ioos:station:USF.COMPS:C10:1,2017-11-12T21:05:00Z,27.1690,-82.9260,1016.65,1111122 
COMPS,ioos:station:USF.COMPS:C10:1,2017-11-12T21:35:00Z,27.1690,-82.9260,1016.89,1111122 
COMPS,ioos:station:USF.COMPS:C10:1,2017-11-12T22:05:00Z,27.1690,-82.9260,1016.96,1111122 
COMPS,ioos:station:USF.COMPS:C10:1,2017-11-12T22:35:00Z,27.1690,-82.9260,1017.32,1111122 
COMPS,ioos:station:USF.COMPS:C10:1,2017-11-12T23:05:00Z,27.1690,-82.9260,1017.66,1111122 
COMPS,ioos:station:USF.COMPS:C10:1,2017-11-12T23:35:00Z,27.1690,-82.9260,1017.94,1111122 
COMPS,ioos:station:USF.COMPS:C10:1,2017-11-13T00:05:00Z,27.1690,-82.9260,1018.19,1111122 
COMPS,ioos:station:USF.COMPS:C10:1,2017-11-13T00:35:00Z,27.1690,-82.9260,1018.63,1111122 
COMPS,ioos:station:USF.COMPS:C10:1,2017-11-13T01:05:00Z,27.1690,-82.9260,1018.57,1111122 
COMPS,ioos:station:USF.COMPS:C10:1,2017-11-13T01:35:00Z,27.1690,-82.9260,1018.77,1111122 
COMPS,ioos:station:USF.COMPS:C10:1,2017-11-13T02:05:00Z,27.1690,-82.9260,1018.96,1111122 
COMPS,ioos:station:USF.COMPS:C10:1,2017-11-13T02:35:00Z,27.1690,-82.9260,1018.92,1111122 
COMPS,ioos:station:USF.COMPS:C10:1,2017-11-13T03:05:00Z,27.1690,-82.9260,1018.94,1111122 
COMPS,ioos:station:USF.COMPS:C10:1,2017-11-13T03:35:00Z,27.1690,-82.9260,1018.63,1111122 
COMPS,ioos:station:USF.COMPS:C10:1,2017-11-13T04:05:00Z,27.1690,-82.9260,1018.3,1111122 
COMPS,ioos:station:USF.COMPS:C10:1,2017-11-13T04:35:00Z,27.1690,-82.9260,1018.3,1111122 
COMPS,ioos:station:USF.COMPS:C10:1,2017-11-13T05:05:00Z,27.1690,-82.9260,1018.02,1111122 
COMPS,ioos:station:USF.COMPS:C10:1,2017-11-13T05:35:00Z,27.1690,-82.9260,1017.78,1111122 
COMPS,ioos:station:USF.COMPS:C10:1,2017-11-13T06:05:00Z,27.1690,-82.9260,1017.84,1111122 
COMPS,ioos:station:USF.COMPS:C10:1,2017-11-13T06:35:00Z,27.1690,-82.9260,1017.75,1111122 
COMPS,ioos:station:USF.COMPS:C10:1,2017-11-13T07:05:00Z,27.1690,-82.9260,1017.56,1111122 
COMPS,ioos:station:USF.COMPS:C10:1,2017-11-13T07:35:00Z,27.1690,-82.9260,1017.33,1111122 
COMPS,ioos:station:USF.COMPS:C10:1,2017-11-13T08:05:00Z,27.1690,-82.9260,1017.16,1111122 
COMPS,ioos:station:USF.COMPS:C10:1,2017-11-13T08:35:00Z,27.1690,-82.9260,1016.83,1111122 
COMPS,ioos:station:USF.COMPS:C10:1,2017-11-13T09:05:00Z,27.1690,-82.9260,1016.85,1111122 
COMPS,ioos:station:USF.COMPS:C10:1,2017-11-13T09:35:00Z,27.1690,-82.9260,1016.73,1111122 
COMPS,ioos:station:USF.COMPS:C10:1,2017-11-13T10:05:00Z,27.1690,-82.9260,1016.69,1111122 
COMPS,ioos:station:USF.COMPS:C10:1,2017-11-13T10:35:00Z,27.1690,-82.9260,1016.85,1111122 
COMPS,ioos:station:USF.COMPS:C10:1,2017-11-13T11:05:00Z,27.1690,-82.9260,1016.84,1111122 
COMPS,ioos:station:USF.COMPS:C10:1,2017-11-13T11:35:00Z,27.1690,-82.9260,1016.96,1111122 
COMPS,ioos:station:USF.COMPS:C10:1,2017-11-13T12:05:00Z,27.1690,-82.9260,1017.29,1111122 
COMPS,ioos:station:USF.COMPS:C10:1,2017-11-13T12:35:00Z,27.1690,-82.9260,1017.78,1111122 
COMPS,ioos:station:USF.COMPS:C10:1,2017-11-13T13:05:00Z,27.1690,-82.9260,1018.21,1111122 
COMPS,ioos:station:USF.COMPS:C10:1,2017-11-13T13:35:00Z,27.1690,-82.9260,1018.25,1111122 
COMPS,ioos:station:USF.COMPS:C10:1,2017-11-13T14:05:00Z,27.1690,-82.9260,1018.28,1111122 
COMPS,ioos:station:USF.COMPS:C10:1,2017-11-13T14:35:00Z,27.1690,-82.9260,1018.55,1111122 
COMPS,ioos:station:USF.COMPS:C10:1,2017-11-13T15:05:00Z,27.1690,-82.9260,1018.57,1111122 
COMPS,ioos:station:USF.COMPS:C10:1,2017-11-13T15:35:00Z,27.1690,-82.9260,1018.29,1111122 
COMPS,ioos:station:USF.COMPS:C10:1,2017-11-13T16:05:00Z,27.1690,-82.9260,1018.1,1111122 
COMPS,ioos:station:USF.COMPS:C10:1,2017-11-13T16:35:00Z,27.1690,-82.9260,1017.75,1111122 
COMPS,ioos:station:USF.COMPS:C10:1,2017-11-13T17:05:00Z,27.1690,-82.9260,1017.18,1111122 
COMPS,ioos:station:USF.COMPS:C10:1,2017-11-13T17:35:00Z,27.1690,-82.9260,1016.67,1111122 
COMPS,ioos:station:USF.COMPS:C10:1,2017-11-13T18:05:00Z,27.1690,-82.9260,1016.3,1111122 
COMPS,ioos:station:USF.COMPS:C10:1,2017-11-13T18:35:00Z,27.1690,-82.9260,1015.9,1111122 
COMPS,ioos:station:USF.COMPS:C10:1,2017-11-13T19:05:00Z,27.1690,-82.9260,1015.68,1111122 
COMPS,ioos:station:USF.COMPS:C10:1,2017-11-13T19:35:00Z,27.1690,-82.9260,1015.52,1111122 
COMPS,ioos:station:USF.COMPS:C10:1,2017-11-13T20:05:00Z,27.1690,-82.9260,1015.38,1111122 
COMPS,ioos:station:USF.COMPS:C10:1,2017-11-13T20:35:00Z,27.1690,-82.9260,1015.12,1111122 
COMPS,ioos:station:USF.COMPS:C10:1,2017-11-13T21:05:00Z,27.1690,-82.9260,1014.83,1111122 
COMPS,ioos:station:USF.COMPS:C10:1,2017-11-13T21:35:00Z,27.1690,-82.9260,1014.67,1111122 
COMPS,ioos:station:USF.COMPS:C10:1,2017-11-13T22:05:00Z,27.1690,-82.9260,1014.63,1111122 
COMPS,ioos:station:USF.COMPS:C10:1,2017-11-13T22:35:00Z,27.1690,-82.9260,1014.78,1111122 
COMPS,ioos:station:USF.COMPS:C10:1,2017-11-14T00:05:00Z,27.1690,-82.9260,1015.49,1111122 
COMPS,ioos:station:USF.COMPS:C10:1,2017-11-14T00:35:00Z,27.1690,-82.9260,1015.84,1111122 
COMPS,ioos:station:USF.COMPS:C10:1,2017-11-14T01:05:00Z,27.1690,-82.9260,1016.05,1111122 
COMPS,ioos:station:USF.COMPS:C10:1,2017-11-14T01:35:00Z,27.1690,-82.9260,1016.08,1111122 
COMPS,ioos:station:USF.COMPS:C10:1,2017-11-14T02:05:00Z,27.1690,-82.9260,1016.37,1111122 
COMPS,ioos:station:USF.COMPS:C10:1,2017-11-14T02:35:00Z,27.1690,-82.9260,1016.85,1111122 
COMPS,ioos:station:USF.COMPS:C10:1,2017-11-14T03:05:00Z,27.1690,-82.9260,1016.76,1111122 
COMPS,ioos:station:USF.COMPS:C10:1,2017-11-14T03:35:00Z,27.1690,-82.9260,1016.79,1111122 
COMPS,ioos:station:USF.COMPS:C10:1,2017-11-14T04:05:00Z,27.1690,-82.9260,1016.49,1111122 
COMPS,ioos:station:USF.COMPS:C10:1,2017-11-14T04:35:00Z,27.1690,-82.9260,1016.32,1111122 
COMPS,ioos:station:USF.COMPS:C10:1,2017-11-14T05:05:00Z,27.1690,-82.9260,1016.31,1111122 
COMPS,ioos:station:USF.COMPS:C10:1,2017-11-14T05:35:00Z,27.1690,-82.9260,1016.0,1111122 
COMPS,ioos:station:USF.COMPS:C10:1,2017-11-14T06:05:00Z,27.1690,-82.9260,1015.88,1111122 
COMPS,ioos:station:USF.COMPS:C10:1,2017-11-14T06:35:00Z,27.1690,-82.9260,1015.77,1111122 
COMPS,ioos:station:USF.COMPS:C10:1,2017-11-14T07:05:00Z,27.1690,-82.9260,1015.63,1111122 
COMPS,ioos:station:USF.COMPS:C10:1,2017-11-14T07:35:00Z,27.1690,-82.9260,1015.41,1111122 
COMPS,ioos:station:USF.COMPS:C10:1,2017-11-14T08:05:00Z,27.1690,-82.9260,1015.31,1111122 
COMPS,ioos:station:USF.COMPS:C10:1,2017-11-14T08:35:00Z,27.1690,-82.9260,1015.17,1111122 
COMPS,ioos:station:USF.COMPS:C10:1,2017-11-14T09:05:00Z,27.1690,-82.9260,1015.14,1111122 
COMPS,ioos:station:USF.COMPS:C10:1,2017-11-14T09:35:00Z,27.1690,-82.9260,1015.21,1111122 
COMPS,ioos:station:USF.COMPS:C10:1,2017-11-14T10:05:00Z,27.1690,-82.9260,1015.35,1111122 
COMPS,ioos:station:USF.COMPS:C10:1,2017-11-14T10:35:00Z,27.1690,-82.9260,1015.37,1111122 
COMPS,ioos:station:USF.COMPS:C10:1,2017-11-14T11:05:00Z,27.1690,-82.9260,1015.57,1111122 
COMPS,ioos:station:USF.COMPS:C10:1,2017-11-14T11:35:00Z,27.1690,-82.9260,1015.78,1111122 
COMPS,ioos:station:USF.COMPS:C10:1,2017-11-14T12:05:00Z,27.1690,-82.9260,1015.91,1111122 
COMPS,ioos:station:USF.COMPS:C10:1,2017-11-14T12:35:00Z,27.1690,-82.9260,1016.19,1111122 
COMPS,ioos:station:USF.COMPS:C10:1,2017-11-14T13:05:00Z,27.1690,-82.9260,1016.36,1111122 
COMPS,ioos:station:USF.COMPS:C10:1,2017-11-14T13:35:00Z,27.1690,-82.9260,1016.46,1111122 
COMPS,ioos:station:USF.COMPS:C10:1,2017-11-14T14:05:00Z,27.1690,-82.9260,1016.54,1111122 
COMPS,ioos:station:USF.COMPS:C10:1,2017-11-14T14:35:00Z,27.1690,-82.9260,1016.72,1111122 
COMPS,ioos:station:USF.COMPS:C10:1,2017-11-14T15:05:00Z,27.1690,-82.9260,1016.7,1111122 
COMPS,ioos:station:USF.COMPS:C10:1,2017-11-14T15:35:00Z,27.1690,-82.9260,1016.48,1111122 
COMPS,ioos:station:USF.COMPS:C10:1,2017-11-14T16:05:00Z,27.1690,-82.9260,1016.12,1111122 
COMPS,ioos:station:USF.COMPS:C10:1,2017-11-14T16:35:00Z,27.1690,-82.9260,1015.53,1111122 
COMPS,ioos:station:USF.COMPS:C10:1,2017-11-14T17:05:00Z,27.1690,-82.9260,1015.08,1111122 
COMPS,ioos:station:USF.COMPS:C10:1,2017-11-14T17:35:00Z,27.1690,-82.9260,1014.54,1111122 
COMPS,ioos:station:USF.COMPS:C10:1,2017-11-14T18:05:00Z,27.1690,-82.9260,1014.1,1111122 
COMPS,ioos:station:USF.COMPS:C10:1,2017-11-14T18:35:00Z,27.1690,-82.9260,1013.74,1111122 
COMPS,ioos:station:USF.COMPS:C10:1,2017-11-14T19:05:00Z,27.1690,-82.9260,1013.43,1111122 
COMPS,ioos:station:USF.COMPS:C10:1,2017-11-14T19:35:00Z,27.1690,-82.9260,1012.95,1111122 
COMPS,ioos:station:USF.COMPS:C10:1,2017-11-14T20:05:00Z,27.1690,-82.9260,1012.65,1111122 
COMPS,ioos:station:USF.COMPS:C10:1,2017-11-14T20:35:00Z,27.1690,-82.9260,1012.37,1111122 
COMPS,ioos:station:USF.COMPS:C10:1,2017-11-14T21:05:00Z,27.1690,-82.9260,1012.31,1111122 
COMPS,ioos:station:USF.COMPS:C10:1,2017-11-14T21:35:00Z,27.1690,-82.9260,1012.32,1111122 
COMPS,ioos:station:USF.COMPS:C10:1,2017-11-14T22:05:00Z,27.1690,-82.9260,1012.37,1111122 
COMPS,ioos:station:USF.COMPS:C10:1,2017-11-14T22:35:00Z,27.1690,-82.9260,1012.57,1111122 
COMPS,ioos:station:USF.COMPS:C10:1,2017-11-14T23:05:00Z,27.1690,-82.9260,1012.72,1111122 
COMPS,ioos:station:USF.COMPS:C10:1,2017-11-14T23:35:00Z,27.1690,-82.9260,1012.94,1111122 
COMPS,ioos:station:USF.COMPS:C10:1,2017-11-15T00:05:00Z,27.1690,-82.9260,1013.09,1111122 
COMPS,ioos:station:USF.COMPS:C10:1,2017-11-15T00:35:00Z,27.1690,-82.9260,1013.17,1111122 
COMPS,ioos:station:USF.COMPS:C10:1,2017-11-15T01:05:00Z,27.1690,-82.9260,1013.45,1111122 
COMPS,ioos:station:USF.COMPS:C10:1,2017-11-15T01:35:00Z,27.1690,-82.9260,1013.72,1111122 
COMPS,ioos:station:USF.COMPS:C10:1,2017-11-15T02:05:00Z,27.1690,-82.9260,1014.03,1111122 
COMPS,ioos:station:USF.COMPS:C10:1,2017-11-15T02:35:00Z,27.1690,-82.9260,1014.02,1111122 
COMPS,ioos:station:USF.COMPS:C10:1,2017-11-15T03:05:00Z,27.1690,-82.9260,1014.16,1111122 
COMPS,ioos:station:USF.COMPS:C10:1,2017-11-15T03:35:00Z,27.1690,-82.9260,1014.27,1111122 
COMPS,ioos:station:USF.COMPS:C10:1,2017-11-15T04:05:00Z,27.1690,-82.9260,1014.32,1111122 
COMPS,ioos:station:USF.COMPS:C10:1,2017-11-15T04:35:00Z,27.1690,-82.9260,1014.26,1111122 
COMPS,ioos:station:USF.COMPS:C10:1,2017-11-15T05:05:00Z,27.1690,-82.9260,1014.06,1111122 